Location: Chervonnoye
(48.6000°N, 34.4000°E)
Time: 20:52:49
(UTC+00:00)

Cosmos-2242 - Pass Details

Date: 23 November 2020
Orbit: 590 x 618 km, 82.5° (Epoch: 27 January)

Event Time Altitude Azimuth Distance (km) Brightness Sun altitude
Rises 14:17:11 0° 203° (SSW) 2,859 7.3 -4.1°
Reaches altitude 10° 14:19:27 10° 209° (SSW) 1,964 6.6 -4.5°
Maximum altitude 14:23:40 48° 284° (WNW) 810 4.1 -5.1°
Drops below altitude 10° 14:27:56 10° 359° (N) 1,992 5.4 -5.7°
Sets 14:30:15 0° 6° (N) 2,904 6.2 -6.1°
